Weather History for KIWD - December, 2011

Change the Weather History Date:

Friday, December 9, 2011

  Actual Average Record
Temperature  
Mean Temperature 8 °F -  
Max Temperature 12 °F 29 °F 44 °F (2006)
Min Temperature 5 °F 17 °F -7 °F (2013)
Degree Days  
Heating Degree Days 56    
Moisture  
Dew Point -1 °F    
Average Humidity 66    
Maximum Humidity 79    
Minimum Humidity 48    
Precipitation  
Precipitation 0.00 in - - ()
Sea Level Pressure  
Sea Level Pressure 30.11 in    
Wind  
Wind Speed 12 mph (WSW)    
Max Wind Speed 16 mph    
Max Gust Speed 21 mph    
Visibility 10 miles    
Events      
Averages and records for this station are not official NWS values.
T = Trace of Precipitation, MM = Missing Value Source: NWS Daily Summary

Daily Weather History Graph

Daily Weather History Graph

Search for Another Location

Airport or City:

Trip Planner

Search our weather history database for the weather conditions in past years. The results will help you decide how hot, cold, wet, or windy it might be!

Date:

Astronomy

Dec. 09, 2011 Rise Set
Actual Time 7:32 AM CST 4:13 PM CST
Civil Twilight 6:57 AM CST 4:47 PM CST
Nautical Twilight 6:19 AM CST 5:26 PM CST
Astronomical Twilight 5:42 AM CST 6:02 PM CST
Moon 3:36 PM CST (12/9) 6:40 AM CST (12/9)
Length of Visible Light 9h 50m
Length of Day
8h 40m
Waxing Gibbous, 99% of the Moon is Illuminated
Dec 9
Waxing Gibbous
Dec 10
Full
Dec 17
Last Quarter
Dec 24
New
Jan 1
First Quarter

Hourly Weather History & Observations

Time (CST) Temp. Windchill Dew Point Humidity Pressure Visibility Wind Dir Wind Speed Gust Speed Precip Events Conditions
12:15 AM 8.6 °F -4.7 °F 1.4 °F 73% 30.00 in 10.0 mi WSW 9.2 mph - N/A   Overcast
12:35 AM 8.6 °F -6.3 °F -0.4 °F 67% 30.00 in 10.0 mi WSW 11.5 mph - N/A   Mostly Cloudy
12:55 AM 8.6 °F -4.7 °F 1.4 °F 73% 30.00 in 10.0 mi WSW 9.2 mph - N/A   Mostly Cloudy
1:15 AM 8.6 °F -5.5 °F -0.4 °F 67% 29.99 in 10.0 mi WSW 10.4 mph - N/A   Partly Cloudy
1:35 AM 8.6 °F -6.3 °F 1.4 °F 73% 29.99 in 10.0 mi WSW 11.5 mph - N/A   Scattered Clouds
1:55 AM 8.6 °F -6.3 °F -0.4 °F 67% 30.00 in 10.0 mi WSW 11.5 mph - N/A   Scattered Clouds
2:15 AM 8.6 °F -5.5 °F -0.4 °F 67% 30.01 in 10.0 mi WSW 10.4 mph - N/A   Mostly Cloudy
2:35 AM 8.6 °F -7.0 °F 1.4 °F 73% 30.01 in 10.0 mi WSW 12.7 mph - N/A   Mostly Cloudy
2:55 AM 8.6 °F -7.7 °F -0.4 °F 67% 30.01 in 10.0 mi WSW 13.8 mph - N/A   Mostly Cloudy
3:15 AM 8.6 °F -7.7 °F -0.4 °F 67% 30.01 in 10.0 mi WSW 13.8 mph - N/A   Mostly Cloudy
3:35 AM 8.6 °F -8.3 °F 1.4 °F 73% 30.01 in 10.0 mi WSW 15.0 mph - N/A   Scattered Clouds
3:55 AM 8.6 °F -8.3 °F 1.4 °F 73% 30.02 in 10.0 mi WSW 15.0 mph - N/A   Mostly Cloudy
4:15 AM 8.6 °F -7.7 °F -0.4 °F 67% 30.02 in 10.0 mi WSW 13.8 mph - N/A   Overcast
4:35 AM 8.6 °F -7.0 °F 1.4 °F 73% 30.03 in 10.0 mi WSW 12.7 mph - N/A   Overcast
4:55 AM 8.6 °F -8.3 °F 1.4 °F 73% 30.03 in 10.0 mi WSW 15.0 mph - N/A   Overcast
7:35 AM 5.0 °F -11.6 °F -0.4 °F 78% 30.07 in 10.0 mi WSW 12.7 mph - N/A   Overcast
7:55 AM 5.0 °F -11.6 °F -0.4 °F 78% 30.07 in 10.0 mi WSW 12.7 mph - N/A   Overcast
8:15 AM 5.0 °F -13.0 °F -0.4 °F 78% 30.08 in 10.0 mi WSW 15.0 mph - N/A   Overcast
8:35 AM 5.0 °F -11.6 °F -0.4 °F 78% 30.09 in 10.0 mi WSW 12.7 mph - N/A   Overcast
8:55 AM 6.8 °F -10.7 °F -0.4 °F 72% 30.10 in 10.0 mi WSW 15.0 mph - N/A   Mostly Cloudy
9:15 AM 6.8 °F -10.0 °F 1.4 °F 79% 30.10 in 10.0 mi WSW 13.8 mph - N/A   Mostly Cloudy
9:35 AM 6.8 °F -8.6 °F -0.4 °F 72% 30.11 in 10.0 mi WSW 11.5 mph - N/A   Mostly Cloudy
9:55 AM 8.6 °F -7.7 °F -0.4 °F 67% 30.12 in 10.0 mi WSW 13.8 mph - N/A   Mostly Cloudy
10:15 AM 8.6 °F -6.3 °F 1.4 °F 73% 30.12 in 10.0 mi West 11.5 mph - N/A   Mostly Cloudy
10:35 AM 8.6 °F -7.7 °F 1.4 °F 73% 30.12 in 10.0 mi West 13.8 mph - N/A   Mostly Cloudy
10:55 AM 8.6 °F -8.3 °F 1.4 °F 73% 30.13 in 10.0 mi West 15.0 mph - N/A   Mostly Cloudy
11:15 AM 10.4 °F -4.8 °F 1.4 °F 67% 30.13 in 10.0 mi West 12.7 mph - N/A   Mostly Cloudy
11:35 AM 10.4 °F -6.6 °F 1.4 °F 67% 30.12 in 10.0 mi West 16.1 mph - N/A   Mostly Cloudy
12:15 PM 10.4 °F -6.0 °F 1.4 °F 67% 30.12 in 10.0 mi West 15.0 mph 19.6 mph N/A   Mostly Cloudy
12:35 PM 10.4 °F -4.8 °F -0.4 °F 62% 30.12 in 10.0 mi WSW 12.7 mph - N/A   Mostly Cloudy
12:55 PM 12.2 °F -3.7 °F -0.4 °F 57% 30.12 in 10.0 mi West 15.0 mph - N/A   Mostly Cloudy
2:15 PM 12.2 °F -2.5 °F -2.2 °F 53% 30.12 in 10.0 mi WSW 12.7 mph - N/A   Mostly Cloudy
2:35 PM 12.2 °F -3.7 °F -4.0 °F 48% 30.12 in 10.0 mi West 15.0 mph - N/A   Mostly Cloudy
2:55 PM 12.2 °F -3.7 °F -2.2 °F 53% 30.12 in 10.0 mi West 15.0 mph 20.7 mph N/A   Mostly Cloudy
3:15 PM 12.2 °F -3.1 °F -2.2 °F 53% 30.13 in 10.0 mi WSW 13.8 mph - N/A   Mostly Cloudy
3:35 PM 12.2 °F -3.7 °F -2.2 °F 53% 30.13 in 10.0 mi WSW 15.0 mph - N/A   Mostly Cloudy
3:55 PM 12.2 °F -2.5 °F -2.2 °F 53% 30.14 in 10.0 mi West 12.7 mph - N/A   Mostly Cloudy
4:15 PM 10.4 °F -4.8 °F -2.2 °F 57% 30.15 in 10.0 mi WSW 12.7 mph - N/A   Scattered Clouds
4:35 PM 10.4 °F -2.4 °F -2.2 °F 57% 30.16 in 10.0 mi WSW 9.2 mph - N/A   Partly Cloudy
4:55 PM 10.4 °F -1.5 °F -2.2 °F 57% 30.16 in 10.0 mi WSW 8.1 mph - N/A   Partly Cloudy
5:15 PM 8.6 °F -3.7 °F -2.2 °F 62% 30.17 in 10.0 mi WSW 8.1 mph - N/A   Partly Cloudy
5:35 PM 8.6 °F -2.6 °F -2.2 °F 62% 30.18 in 10.0 mi SW 6.9 mph - N/A   Partly Cloudy
5:55 PM 8.6 °F -3.7 °F -4.0 °F 57% 30.18 in 10.0 mi SW 8.1 mph - N/A   Partly Cloudy
6:15 PM 6.8 °F -4.8 °F -2.2 °F 67% 30.18 in 10.0 mi SW 6.9 mph - N/A   Partly Cloudy
6:35 PM 6.8 °F -5.9 °F -2.2 °F 67% 30.18 in 10.0 mi SW 8.1 mph - N/A   Partly Cloudy
6:55 PM 6.8 °F -5.9 °F -0.4 °F 72% 30.18 in 10.0 mi WSW 8.1 mph - N/A   Partly Cloudy
7:15 PM 6.8 °F -5.9 °F -2.2 °F 67% 30.19 in 10.0 mi SW 8.1 mph - N/A   Partly Cloudy
8:15 PM 6.8 °F -5.9 °F -2.2 °F 67% 30.20 in 10.0 mi WSW 8.1 mph - N/A   Partly Cloudy
8:35 PM 6.8 °F -7.8 °F -0.4 °F 72% 30.20 in 10.0 mi WSW 10.4 mph - N/A   Clear
8:55 PM 6.8 °F -8.6 °F -2.2 °F 67% 30.20 in 10.0 mi WSW 11.5 mph - N/A   Clear
9:15 PM 6.8 °F -7.8 °F -2.2 °F 67% 30.20 in 10.0 mi WSW 10.4 mph - N/A   Partly Cloudy
9:35 PM 6.8 °F -8.6 °F -2.2 °F 67% 30.20 in 10.0 mi WSW 11.5 mph - N/A   Partly Cloudy
9:55 PM 6.8 °F -8.6 °F -2.2 °F 67% 30.20 in 10.0 mi WSW 11.5 mph - N/A   Partly Cloudy
10:15 PM 6.8 °F -7.8 °F -2.2 °F 67% 30.20 in 10.0 mi WSW 10.4 mph - N/A   Partly Cloudy
10:35 PM 6.8 °F -8.6 °F -2.2 °F 67% 30.20 in 10.0 mi WSW 11.5 mph - N/A   Partly Cloudy
10:55 PM 6.8 °F -10.0 °F -4.0 °F 61% 30.21 in 10.0 mi West 13.8 mph - N/A   Partly Cloudy
11:15 PM 6.8 °F -7.8 °F -2.2 °F 67% 30.21 in 10.0 mi WSW 10.4 mph - N/A   Partly Cloudy
11:35 PM 6.8 °F -7.8 °F -4.0 °F 61% 30.21 in 10.0 mi WSW 10.4 mph - N/A   Partly Cloudy
11:55 PM 6.8 °F -8.6 °F -4.0 °F 61% 30.21 in 10.0 mi WSW 11.5 mph - N/A   Partly Cloudy